775  
ASUS46 KSGX 231011  
RWRSGX  
 
SAN DIEGO HOURLY WEATHER ROUNDUP  
NATIONAL WEATHER SERVICE SAN DIEGO CA  
300 AM PDT WED MAY 23 2018  
 
NOTE: "FAIR" INDICATES FEW OR NO CLOUDS BELOW 12,000 FEET WITH NO  
SIGNIFICANT WEATHER AND/OR S TO VISIBILITY
.  
 
CAZ042-043-060-061-PZZ750-775-231100-  
 
GREATER SAN DIEGO AREA  
 
CITY SKY/WX TMP DP RH WIND PRES REMARKS
 
SAN DIEGO AP CLOUDY 61 53 75 S7 29.95F  
NATIONAL CITY N/A 61 54 78 CALM 29.96S  
CHULA VISTA N/A 59 54 81 CALM 29.86F  
IMPERIAL BEACH CLOUDY 60 51 72 CALM 29.95F  
BROWN FIELD CLOUDY 59 51 75 CALM 29.94F  
MIRAMAR MCAS CLOUDY 60 51 72 SE5 29.93F  
MONTGOMERY FLD CLOUDY 59 51 75 SE5 29.94F  
GILLESPIE FLD CLOUDY 59 52 77 CALM 29.93F  
 

 
 
NORTH SAN DIEGO COUNTY  
 
CITY SKY/WX TMP DP RH WIND PRES REMARKS
 
CAMP PENDLETON CLOUDY 56 52 86 CALM 29.93F  
OCEANSIDE AP CLOUDY 59 56 89 NE3 29.93F  
OCEANSIDE HBR N/A 59 57 91 S3 29.95F  
VISTA N/A 57 52 84 CALM 29.91S  
CARLSBAD CLOUDY 58 54 86 CALM 29.92F  
DEL MAR N/A 58 54 87 CALM 29.95F  
LA JOLLA SCRIP N/A 59 54 84 SE1 29.93F  
FALLBROOK N/A 57 57 97 CALM 29.95S  
ESCONDIDO N/A 58 53 84 W3 29.94F  
SAN MARCOS N/A 56 52 85 CALM 29.97F  
POWAY N/A 58 52 80 CALM 29.93F  
 

 
 
EAST SAN DIEGO COUNTY  
 
CITY SKY/WX TMP DP RH WIND PRES REMARKS
 
RAMONA CLOUDY 55 50 83 VRB3 29.93F  
SANTEE LAKES N/A 57 52 83 CALM 29.93F  
LA MESA N/A 57 51 82 CALM 29.88F  
JAMUL N/A 56 50 81 CALM 29.93F  
CAMPO N/A 49 46 90 CALM 29.90F  
 

 
 
ORANGE COUNTY AND THE LOS ANGELES BASIN  
 
CITY SKY/WX TMP DP RH WIND PRES REMARKS
 
JOHN WAYNE AP CLOUDY 61 55 81 SW3 29.93S  
LAGUNA BEACH N/A 56 53 89 CALM 29.89S  
LAKE FOREST FR N/A 54 50 87 SW1 29.83S  
HUNTINGTON BCH N/A 60 57 89 W3 29.94S  
LOS ALAMITOS CLOUDY 60 54 79 SW6 29.92F  
FULLERTON CLOUDY 63 53 70 CALM 29.92S  
LONG BEACH CLOUDY 61 54 77 S5 29.93S  
L.A. AP CLOUDY 60 54 80 W8 29.93S  
L.A. DOWNTOWN CLOUDY 60 54 80 CALM 29.92F  
 

 
 
THE INLAND EMPIRE  
 
CITY SKY/WX TMP DP RH WIND PRES REMARKS
 
CORONA MOCLDY 51 49 92 CALM 29.93F  
CHINO MOCLDY 56 50 80 CALM 29.94S  
ONTARIO MOCLDY 56 49 77 CALM 29.92F  
SAN BERNARDINO CLOUDY 60 50 70 W3 29.93S  
RIVERSIDE AP CLOUDY 57 51 80 CALM 29.93S  
MARCH ARB CLOUDY 56 55 94 CALM 29.92F  
HORSETHIEF CYN N/A 57 48 73 CALM 29.92F  
PERRIS N/A 57 54 91 CALM N/A  
HEMET EAST N/A 55 48 76 CALM 29.87S  
FRENCH VALLEY CLOUDY 55 50 82 S3 29.94S  
TEMECULA N/A 56 53 91 CALM 30.00F  
 

 
 
SAN BERNARDINO AND RIVERSIDE COUNTY MOUNTAINS  
 
CITY SKY/WX TMP DP RH WIND PRES REMARKS
 
BIG BEAR AP CLEAR 34 30 86 CALM 30.04S  
ANGELUS OAKS N/A 47 36 64 CALM 29.77F  
 

 
 
SOUTHERN DESERT INCLUDING THE COACHELLA VALLEY  
 
CITY SKY/WX TMP DP RH WIND PRES REMARKS
 
PALM SPRINGS CLEAR 69 50 50 NW8 29.79S  
THOUSAND PALMS N/A 65 51 59 NW22 29.74F  
PALM DESERT N/A 66 52 60 CALM N/A  
THERMAL CLEAR 71 50 47 NW12 29.75R  
BLYTHE CLEAR 70 43 37 S9 29.77S  
IMPERIAL AP CLEAR 67 47 48 W8 29.75S  
EL CENTRO NAS CLEAR 69 43 38 W10 29.78S  
YUMA AZ CLEAR 70 58 65 SE6 29.77S  
 

 
 
UPPER DESERT  
 
CITY SKY/WX TMP DP RH WIND PRES REMARKS
 
HESPERIA N/A 53 47 78 W3 29.84S  
APPLE VALLEY N/A 49 45 85 CALM 29.85S  
PALMDALE CLEAR 58 47 66 SW12 29.88F  
LANCASTER CLEAR 57 48 72 SW6 29.86F  
EDWARDS AFB CLEAR 57 48 73 S15 29.84S  
DAGGETT CLEAR 65 47 52 W9 29.83S  
29 PALMS N CLEAR 69 39 33 W3 29.89S  
NEEDLES CLEAR 78 31 17 SW9 29.77S  
 

 
 
REGIONAL REPORTS  
 
CITY SKY/WX TMP DP RH WIND PRES REMARKS
 
SANTA BARBARA MOCLDY 55 51 86 NE5 29.92S  
SANDBERG FOG 44 43 96 W9 29.96F VSB 1/4  
LAS VEGAS NV PTCLDY 72 36 26 CALM 29.80R  
PHOENIX AZ CLEAR 73 34 23 E9 29.82S  
TIJUANA CLOUDY 59 52 77 CALM 29.96  
ENSENADA NW N/A 60 32 34 CALM 29.88F  
 

 
 
OFFSHORE ISLANDS  
 
CITY SKY/WX TMP DP RH WIND PRES REMARKS
 
CATALINA ARPT CLOUDY 51 32 48 SW7 29.94S HAZE  
SAN CLEMENTE I CLOUDY N/A N/A N/A S6 29.95F  
SAN NICOLAS IS CLOUDY 54 32 43 W6 29.93F  
 

 
 
MARINE AND OFFSHORE BUOY REPORTS  
 
STATION/POSITION SKY/WX TEMP WIND PRES VSBY SWELL
 
AIR SEA DIR/SP/G HT/PER/DIR  
(F) (DEG/KT/KT) (MB) (MI) (FT/S/D)  
TANNER BANKS 56 60 1013.8F  
S CLEMENTE BASIN 58 62 250/ 8/ 10 1013.8F 5/190/17  
SAN NICOLAS IS. 57 N/A 5/190/17  
SO. S. ROSA ISLA 54 56 300/ 12/ 14 1013.2F 5/170/16  
W. S. BARBARA CH 54 310/ 12/ 14 1013.1S 5/180/17  
M. S. BARBARA CH 54 58 210/ 10/ 12 1013.9  
S. MONICA BASIN CALM 1013.0  
S PEDRO CHANNEL 62 N/A 2/180/18  
CMP PENDLETON NS 64 N/A 3/220/17  
OCEANSIDE OFFSHR 63 N/A 3/190/18  
TORREY PINES OTR 63 N/A 3/200/17  
SAN DIEGO BAY 65 1013.5F  
POINT LOMA SOUTH 63 N/A 3/200/17  
 

 
 
 
 
CLICK HERE TO GO TO PREVIOUS BULLETINS.

The Nexlab CA Page Main Text Page